Regional Weather Roundup
Issued by NWS

Home | Current Version | Previous Version | Text Only | Print | Product List | Glossary Off
Versions: 1 2 3 4 5 6 7 8 9 10 11 12 13 14 15 16 17 18 19 20 21 22 23 24 25 26 27 28 29 30 31 32 33 34 35 36 37 38 39 40 41 42 43 44 45 46 47 48 49 50

000
ASUS45 KBOU 280307
RWRCO

WEATHER ROUNDUP FOR COLORADO
NATIONAL WEATHER SERVICE DENVER/BOULDER CO
900 PM MDT WED AUG 27 2014

NOTE: "FAIR" INDICATES FEW OR NO CLOUDS BELOW 12000 FEET WITH NO
SIGNIFICANT WEATHER AND/OR OBSTRUCTIONS TO VISIBILITY.

COZ001>005-013-030-031-280400-
...NORTHWEST COLORADO...

CITY           SKY/WX    TMP DP  RH WIND       PRES   REMARKS
CRAIG          CLOUDY    54  49  83 S9        30.29R
HAYDEN         CLOUDY    52  46  82 W6        30.30R
MEEKER         CLOUDY    53  51  93 CALM      30.32R
MOUNT WERNER   NOT AVBL
STEAMBOAT SPGS CLOUDY    52  49  88 CALM      30.31S
WALDEN         CLOUDY    50  43  76 S3        30.35R
$$

COZ006>008-011-280400-
...WEST CENTRAL VALLEYS...

CITY           SKY/WX    TMP DP  RH WIND       PRES   REMARKS
GRAND JUNCTION CLOUDY    59  56  89 S7        30.24S
MONTROSE       MOCLDY    57  47  69 SE7       30.31R
EAGLE          CLOUDY    57  48  72 SW8       30.32R
RIFLE          CLOUDY    57  54  89 SE6       30.28R
DELTA          RAIN      62  53  72 N7        30.28R
NUCLA          MOCLDY    54  48  82 E7        30.34S
$$

COZ017>023-064>068-280400-
...SOUTHWEST COLORADO...

CITY           SKY/WX    TMP DP  RH WIND       PRES   REMARKS
DURANGO        PTCLDY    53  44  71 NW3       30.33
CORTEZ         MOCLDY    54  51  90 NE3       30.31
PAGOSA SPRINGS PTCLDY    56  37  47 W3        30.38S
TELLURIDE      CLOUDY    46  43  87 E5        30.47R
WOLF CREEK PAS MOCLDY    34  34 100 SW15G23   30.57R WCI  24
$$

COZ009-010-012-014-032>034-037-058>063-280400-
...CENTRAL COLORADO...

CITY           SKY/WX    TMP DP  RH WIND       PRES   REMARKS
ASPEN          CLOUDY    50  45  83 E5        30.35R
BUENA VISTA    PTCLDY    54  35  48 W16G24    30.33R
COPPER MTN     MOCLDY    41  32  70 SW14G21   30.55R
BERTHOUD PASS  FOG       32  30  93 N15G24    30.57R VSB<1/4 WCI  22
COTTONWOOD PAS PTCLDY    52  32  46 W14G23    30.43R
GUNNISON       PTCLDY    52  37  58 W9        30.40R
KREMMLING      MOCLDY    52  39  62 CALM      30.33R
LEADVILLE      PTCLDY    43  35  73 N8        30.43R
MONARCH PASS   MOCLDY    36  34  93 W36       30.63F
SALIDA         MOCLDY    59  38  47 W16G24    30.38S
SUNLIGHT       LGT RAIN  41  41 100 CALM      30.49R
WILKERSON PASS NOT AVBL
$$

COZ069>075-280400-
...SAN LUIS VALLEY/SANGRE DE CRISTO MOUNTAINS...

CITY           SKY/WX    TMP DP  RH WIND       PRES   REMARKS
ALAMOSA        MOCLDY    58  39  49 N8        30.33R
LA VETA PASS   NOT AVBL
SAGUACHE       PTCLDY    48  41  76 N9        30.37S
$$

COZ035-036-038>040-280400-
...NORTHERN COLORADO FRONT RANGE...

CITY           SKY/WX    TMP DP  RH WIND       PRES   REMARKS
DENVER INTL AP TSTM      63  58  83 W9        30.20R
DMNS CITY PARK   N/A     60  54  79 N8        30.14F
AURORA         TSTM      59  52  79 N16G26    30.18S
FRONT RANGE AP CLOUDY    63  59  88 W17       30.20
ERIE MUNI ARPT RAIN      62  57  84 S7        30.17R
BOULDER MUN AP CLOUDY    61  55  82 SE6       30.16R
CENTENNIAL     MOCLDY    58  50  75 N8        30.18R THUNDER
BROOMFIELD     LGT RAIN  61  55  82 SW3       30.20R
FORT COLLINS   CLOUDY    63  55  77 NE5       30.15R
LONGMONT       DRIZZLE   64  58  80 SW3       30.17R
$$

COZ041-046-047-076>085-087-088-280400-
...PIKES PEAK/PALMER DIVIDE AND SOUTHERN FOOTHILLS...

CITY           SKY/WX    TMP DP  RH WIND       PRES   REMARKS
COLO. SPRINGS  MOCLDY    65  45  48 NE18      30.17R
A. F. ACADEMY  MOCLDY    62  45  53 N17       30.18R
ELLICOTT       MOCLDY    63  54  72 N21G31    30.15R THUNDER
FALCON         MOCLDY    60  49  67 N10G21    30.23R THUNDER
FORT CARSON    MOCLDY    68  42  39 NE16      30.13R
LIMON          TSTM      63  59  87 NW15G23   30.13R
MONUMENT HILL  MOCLDY    52  50  93 N10       30.24S
TRINIDAD       PTCLDY    70  44  39 VRB3      30.13R
$$

COZ042>045-048>051-090-091-280400-
...NORTHEAST COLORADO...

CITY           SKY/WX    TMP DP  RH WIND       PRES   REMARKS
GREELEY ARPT   CLOUDY    63  50  63 NE5       30.13S
AKRON          CLOUDY    60  58  92 N14       30.08R
BURLINGTON     PTCLDY    69  65  86 SE15G21   30.01S
WRAY             N/A     69  67  92 E14       30.00R
STERLING       CLOUDY    70  63  78 N7        30.06R
HOLYOKE        CLOUDY    61  57  88 NE9G25    30.04F
FORT MORGAN    CLOUDY    63  54  73 N15       30.08F
$$

COZ086-089-092>099-280400-
...SOUTHEAST COLORADO...

CITY           SKY/WX    TMP DP  RH WIND       PRES   REMARKS
PUEBLO         PTCLDY    75  40  28 NW15      30.04R
LA JUNTA       LGT RAIN  69  62  78 E7        30.00R
LAMAR          MOCLDY    77  58  51 S13       29.96R
SPRINGFIELD      N/A     72  62  71 SE20      30.06R
$$



USA.gov is the U.S. government's official web portal to all federal, state and local government web resources and services.